Location: Kuffner-Sternwarte
(48.2130°N, 16.2960°E)
Time: 04:52:12
(UTC+02:00)

COROT - Pass Details

Date: 26 May 2017
Orbit: 602 x 888 km, 90.0° (Epoch: 26 July)

Event Time Altitude Azimuth Distance (km) Brightness Sun altitude
Rises 22:28:40 0° 352° (N) 3,142 10.4 -13.5°
Reaches altitude 10° 22:31:20 10° 340° (NNW) 2,166 9.7 -13.7°
Maximum altitude 22:35:13 26° 285° (WNW) 1,316 7.8 -14.1°
Drops below altitude 10° 22:38:53 10° 229° (SW) 2,028 8.1 -14.4°
Sets 22:41:19 0° 217° (SW) 2,899 8.8 -14.6°
